Date String (YYYY-MM-DD hh:mm:ss) UTC,Instrument flags,absolute air pressure of the measurement (hPa),sample flow rate (lpm),inlet stack bypass flow (lpm),air temperature of the measurement (°C),ambient temperature measured by the external sensor (°C),aerosol sample conditioner tube jacket temperature (°C),OPC LED temperature (°C),internal box temperature (°C),relative humidity of the measurement (%),span deviation,mass concentration of particles derived from Lorenz-Mie calculation of OPC scattering (μg/m³),mass concentration of particles derived from Lorenz-Mie calculation of OPC scattering (μg/m³),mass concentration of particles derived from Lorenz-Mie calculation of OPC scattering (μg/m³)
DateTimeUTC,F1_M11,P_M11,Q1_M11,Q2_M11,T1_M11,T2_M11,T3_M11,T4_M11,T5_M11,U1_M11,ZSPAN_M11,X2_M11,X0_M11,X1_M11
2024-05-25 17:00:00,SystemResetWarning,0819.8,5.00,000.00,030.5,029.7,000.0,038.8,032.1,015.3,0000.0,0003.82,0023.25,0001.54
2024-05-25 17:01:00,SystemResetWarning,0819.8,5.01,000.00,030.5,029.7,000.0,038.8,032.2,015.5,0000.0,0003.81,0021.78,0001.54
2024-05-25 17:02:00,SystemResetWarning,0819.8,5.01,000.00,030.5,029.8,000.0,038.8,032.2,015.6,0000.0,0003.77,0020.44,0001.54
2024-05-25 17:03:00,SystemResetWarning,0820.0,4.99,000.00,030.5,029.8,000.0,038.8,032.2,015.4,0000.0,0003.72,0020.45,0001.54
2024-05-25 17:04:00,SystemResetWarning,0820.1,5.00,000.00,030.5,029.8,000.0,038.8,032.2,015.3,0000.0,0003.80,0020.38,0001.56
2024-05-25 17:05:00,SystemResetWarning,0820.3,5.00,000.00,030.5,029.8,000.0,038.8,032.2,015.4,0000.0,0003.83,0020.54,0001.58
2024-05-25 17:06:00,SystemResetWarning,0820.0,5.00,000.00,030.6,029.8,000.0,038.8,032.2,015.7,0000.0,0003.90,0020.32,0001.59
2024-05-25 17:07:00,SystemResetWarning,0819.8,5.00,000.00,030.6,029.8,000.0,038.8,032.2,015.3,0000.0,0003.91,0020.55,0001.58
2024-05-25 17:08:00,SystemResetWarning,0820.0,5.00,000.00,030.6,029.8,000.0,038.8,032.2,015.0,0000.0,0003.92,0022.54,0001.57
2024-05-25 17:09:00,SystemResetWarning,0819.7,4.99,000.00,030.6,029.8,000.0,038.9,032.2,015.0,0000.0,0003.98,0022.57,0001.55
2024-05-25 17:10:00,SystemResetWarning,0819.8,5.00,000.00,030.6,029.8,000.0,038.9,032.2,015.2,0000.0,0003.95,0023.59,0001.54
2024-05-25 17:11:00,SystemResetWarning,0819.8,5.00,000.00,030.6,029.8,000.0,038.9,032.2,015.2,0000.0,0003.96,0022.08,0001.56
2024-05-25 17:12:00,SystemResetWarning,0819.8,5.00,000.00,030.6,029.8,000.0,038.9,032.2,015.0,0000.0,0004.05,0022.24,0001.56
2024-05-25 17:13:00,SystemResetWarning,0819.8,5.00,000.00,030.6,029.8,000.0,038.9,032.2,014.7,0000.0,0004.17,0023.53,0001.56
2024-05-25 17:14:00,SystemResetWarning,0819.8,5.00,000.00,030.6,029.8,000.0,038.9,032.2,014.9,0000.0,0004.19,0023.60,0001.56
2024-05-25 17:15:00,SystemResetWarning,0819.8,5.00,000.00,030.6,029.8,000.0,038.9,032.3,014.5,0000.0,0004.18,0024.22,0001.56
2024-05-25 17:16:00,SystemResetWarning,0820.0,4.99,000.00,030.6,029.9,000.0,038.9,032.3,014.4,0000.0,0004.17,0024.90,0001.55
2024-05-25 17:17:00,SystemResetWarning,0819.9,5.01,000.00,030.6,029.9,000.0,038.9,032.3,014.5,0000.0,0004.15,0025.25,0001.55
2024-05-25 17:18:00,SystemResetWarning,0819.7,5.00,000.00,030.7,029.9,000.0,038.9,032.3,014.6,0000.0,0004.16,0024.78,0001.57
2024-05-25 17:19:00,SystemResetWarning,0819.6,5.00,000.00,030.7,029.9,000.0,039.0,032.3,014.6,0000.0,0004.16,0023.11,0001.58
2024-05-25 17:20:00,SystemResetWarning,0819.8,5.01,000.00,030.7,029.9,000.0,039.0,032.3,014.9,0000.0,0004.13,0022.60,0001.60
2024-05-25 17:21:00,SystemResetWarning,0820.0,5.01,000.00,030.7,029.9,000.0,039.0,032.3,014.4,0000.0,0004.11,0021.56,0001.63
2024-05-25 17:22:00,SystemResetWarning,0819.7,4.99,000.00,030.7,029.9,000.0,039.0,032.3,014.5,0000.0,0004.13,0022.01,0001.65
2024-05-25 17:23:00,SystemResetWarning,0819.7,4.99,000.00,030.7,030.0,000.0,039.0,032.3,015.1,0000.0,0004.07,0022.29,0001.66
2024-05-25 17:24:00,SystemResetWarning,0819.7,5.00,000.00,030.7,030.0,000.0,039.0,032.4,014.7,0000.0,0004.00,0021.65,0001.68
2024-05-25 17:25:00,SystemResetWarning,0819.6,5.01,000.00,030.7,030.0,000.0,039.0,032.4,014.8,0000.0,0003.96,0021.36,0001.70
2024-05-25 17:26:00,SystemResetWarning,0819.5,5.01,000.00,030.7,030.0,000.0,039.0,032.4,014.9,0000.0,0003.94,0020.75,0001.70
2024-05-25 17:27:00,SystemResetWarning,0819.5,5.00,000.00,030.8,030.0,000.0,039.0,032.4,014.6,0000.0,0003.92,0018.78,0001.70
2024-05-25 17:28:00,SystemResetWarning,0819.5,4.99,000.00,030.8,030.0,000.0,039.0,032.4,014.3,0000.0,0003.95,0017.96,0001.72
2024-05-25 17:29:00,SystemResetWarning,0819.5,4.99,000.00,030.8,030.0,000.0,039.1,032.4,014.5,0000.0,0003.97,0019.04,0001.72
2024-05-25 17:30:00,SystemResetWarning,0819.5,4.99,000.00,030.8,030.1,000.0,039.1,032.4,014.7,0000.0,0004.01,0020.63,0001.73
2024-05-25 17:31:00,SystemResetWarning,0819.8,5.00,000.00,030.8,030.1,000.0,039.1,032.4,014.5,0000.0,0004.04,0020.65,0001.73
2024-05-25 17:32:00,SystemResetWarning,0819.5,5.00,000.00,030.8,030.1,000.0,039.1,032.4,014.4,0000.0,0004.05,0020.52,0001.73
2024-05-25 17:33:00,SystemResetWarning,0819.5,5.00,000.00,030.8,030.1,000.0,039.1,032.4,014.4,0000.0,0004.05,0020.18,0001.73
2024-05-25 17:34:00,SystemResetWarning,0819.5,5.00,000.00,030.8,030.1,000.0,039.1,032.5,014.4,0000.0,0004.09,0020.68,0001.73
2024-05-25 17:35:00,SystemResetWarning,0819.5,5.01,000.00,030.8,030.1,000.0,039.1,032.5,013.9,0000.0,0004.14,0021.47,0001.74
2024-05-25 17:36:00,SystemResetWarning,0819.5,5.00,000.00,030.9,030.1,000.0,039.2,032.5,014.0,0000.0,0004.16,0021.67,0001.75
2024-05-25 17:37:00,SystemResetWarning,0819.5,4.99,000.00,030.9,030.2,000.0,039.2,032.5,014.3,0000.0,0004.14,0021.71,0001.76
2024-05-25 17:38:00,SystemResetWarning,0819.5,5.00,000.00,030.9,030.2,000.0,039.2,032.5,014.4,0000.0,0004.11,0021.01,0001.75
2024-05-25 17:39:00,SystemResetWarning,0819.4,4.99,000.00,030.9,030.2,000.0,039.2,032.6,015.2,0000.0,0004.06,0020.84,0001.75
2024-05-25 17:40:00,SystemResetWarning,0819.4,5.00,000.00,030.9,030.2,000.0,039.2,032.6,014.8,0000.0,0004.06,0020.46,0001.74
2024-05-25 17:41:00,SystemResetWarning,0819.5,4.99,000.00,030.9,030.2,000.0,039.2,032.6,014.8,0000.0,0004.07,0019.44,0001.74
2024-05-25 17:42:00,SystemResetWarning,0819.3,5.00,000.00,030.9,030.2,000.0,039.2,032.6,014.8,0000.0,0004.03,0020.11,0001.74
2024-05-25 17:43:00,SystemResetWarning,0819.3,5.00,000.00,031.0,030.2,000.0,039.2,032.6,015.0,0000.0,0004.00,0020.35,0001.76
2024-05-25 17:44:00,SystemResetWarning,0819.4,5.01,000.00,031.0,030.3,000.0,039.2,032.6,014.3,0000.0,0003.98,0020.70,0001.76
2024-05-25 17:45:00,SystemResetWarning,0819.4,5.01,000.00,031.0,030.3,000.0,039.2,032.6,014.3,0000.0,0003.96,0020.74,0001.79
2024-05-25 17:46:00,SystemResetWarning,0819.5,4.99,000.00,031.0,030.3,000.0,039.3,032.6,014.6,0000.0,0003.89,0020.41,0001.79
2024-05-25 17:47:00,SystemResetWarning,0819.5,4.99,000.00,031.0,030.3,000.0,039.3,032.6,014.8,0000.0,0003.89,0019.97,0001.79
2024-05-25 17:48:00,SystemResetWarning,0819.5,5.00,000.00,031.0,030.3,000.0,039.3,032.7,014.4,0000.0,0003.89,0019.23,0001.79
2024-05-25 17:49:00,SystemResetWarning,0819.5,5.00,000.00,031.0,030.3,000.0,039.3,032.7,014.7,0000.0,0003.92,0019.18,0001.80
2024-05-25 17:50:00,SystemResetWarning,0819.5,5.00,000.00,031.0,030.3,000.0,039.3,032.7,015.7,0000.0,0003.94,0018.53,0001.82
2024-05-25 17:51:00,SystemResetWarning,0819.5,5.01,000.00,031.0,030.3,000.0,039.3,032.7,015.6,0000.0,0003.95,0017.84,0001.84
2024-05-25 17:52:00,SystemResetWarning,0819.5,5.01,000.00,031.1,030.3,000.0,039.3,032.7,015.1,0000.0,0003.89,0017.50,0001.83
2024-05-25 17:53:00,SystemResetWarning,0819.5,4.99,000.00,031.1,030.3,000.0,039.3,032.7,015.2,0000.0,0003.86,0015.60,0001.82
2024-05-25 17:54:00,SystemResetWarning,0819.5,4.99,000.00,031.1,030.4,000.0,039.4,032.7,014.5,0000.0,0003.82,0014.27,0001.80
2024-05-25 17:55:00,SystemResetWarning,0819.5,5.00,000.00,031.1,030.4,000.0,039.4,032.7,014.2,0000.0,0003.83,0014.67,0001.79
2024-05-25 17:56:00,SystemResetWarning,0819.4,5.01,000.00,031.1,030.4,000.0,039.4,032.7,014.3,0000.0,0003.83,0014.08,0001.77
2024-05-25 17:57:00,SystemResetWarning,0819.4,5.01,000.00,031.1,030.4,000.0,039.4,032.8,014.5,0000.0,0003.82,0014.66,0001.76
2024-05-25 17:58:00,SystemResetWarning,0819.3,4.99,000.00,031.1,030.4,000.0,039.4,032.8,014.7,0000.0,0003.83,0015.08,0001.75
2024-05-25 17:59:00,SystemResetWarning,0819.3,4.99,000.00,031.1,030.4,000.0,039.4,032.8,014.5,0000.0,0003.83,0015.50,0001.74
